Weather in Xudat

Azerbaijan     41°37′47″N   48°40′48″E
temp.,
°C
wind,
m/s
gust,
m/s
humid.,
%
clouds,
%
prec.,
mm/h
press.,
hPa
HPBL,
m
26 february, fri
fri2601:00+1wsw226528 0.0 1030138
04:00+2wnw225564 0.0 1028170
07:00+2w335690 0.0 1028178
10:00+5ssw344292 0.0 1028174
13:00+6se5551100 0.0 1027249
16:00+7sse666097 0.0 1025298
19:00+6sse566715 0.0 1025205
22:00+6s566552 0.0 1025149
27 february, sat
sat2701:00+7ssw3360100 0.0 102450
04:00+7ssw335887 0.0 102352
07:00+6sw335962 0.0 102245
10:00+7s226433 0.0 102241
13:00+8ese34590 0.0 1020142
16:00+7ene34720 0.0 1018219
19:00+7nnw45780 0.0 1018126
22:00+7nw56790 0.0 1017142
28 february, sun
sun2801:00+7wnw45760 0.0 101692
04:00+7wsw22710 0.0 101423
07:00+7w22660 0.0 101422
10:00+8wnw12670 0.0 101334
13:00+8ene22650 0.0 101265
16:00+9ene34660 0.0 101259
19:00+8nnw7108119 0.0 1014242
22:00+7nw798760 0.0 1016304
1 march, mon
mon101:00+6nnw4591100 0.0 1018337
04:00+6n5695100 0.9 1019343
07:00+6n81091100 1.4 1021539
10:00+6n7983100 2.3 1023771
13:00+6nnw667894 0.1 1024689
16:00+6n457687 0.1 1024614
19:00+5n447893 0.0 1026609
22:00+5n117394 0.0 1027568
2 march, tue
tue201:00+5ne0172100 0.0 1028435
04:00+5ene2273100 0.1 1028362
07:00+5ene2275100 0.1 1029518
10:00+5se2274100 0.3 1030553
13:00+5e4470100 0.1 1029672
16:00+5e4470100 0.1 1028661
19:00+5ese447184 0.0 1028685
22:00+5se337086 0.0 1028708